COSMOS 1758

Satellite information

Favourite Embed

Satellite Type and Status

PAYLOADIN ORBIT

Key statistics

Satellite COSMOS 1758 at a glance.

Uptime

14211

Days in orbit

Revolutions

≈ 15.2

Per day

Orbit

LEO

Low Earth Orbit

Inclination

82.5

Latest

Satellite identification and parameters

Extended collection of information and parameters for COSMOS 1758.

Object identification

Identified? True

Debris? False

Object name: COSMOS 1758

International designator: 1986-046A

Object number (NORAD): 16791

Object ID (CCSDS): 16791

Country: COMMONWEALTH OF INDEPENDENT STATES (CIS)

Current information (Y/N): Y

RCS size: LARGE

Orbital parameters

Period: 94.678 minutes

Inclination: 82.4598 deg

SMA: 6881.114 km

Apoapsis: 513.103 km

Periapsis: 492.856 km

RAAN: 90.0846 deg

Eccentricy: 0.0014712

Argument of periapsis: 328.4016 deg

Mean anomaly: 31.6334 deg

Mean motion: 15.20948912 rev/day

Mean motion (dot): 0.00007939 rev/day2

B* drag term: 0.00035623 1/REarth

Two-line elements (TLE)

Creation date: May 9, 2025, 2:46 a.m.

Reference frame: TEME

Reference center: EARTH

Epoch: May 8, 2025, 8:56 a.m. UTC

TLE line 0: 0 COSMOS 1758

TLE line 1: 1 16791U 86046A 25128.37240983 .00007939 00000-0 35623-3 0 9992

TLE line 2: 2 16791 82.4598 90.0846 0014712 328.4016 31.6334 15.20948912119594

Live tracking on map

Real-time ground track for satellite COSMOS 1758.

In-orbit conjunctions

A list of the most updated potential collisions computed for object COSMOS 1758.

Target Orbit TCA Probability of collision Miss distance Type
FENGYUN 1C DEB SSO 2024-11-03 04:18:51 0.0001308555 243.0 (m) DEBRIS
COSMOS 374 DEB MEO 2024-06-21 22:30:53 0.0001486012 503.0 (m) DEBRIS

Associated space launch

Tselina-D satellites provided detailed observation of radio sources detected by the smaller Tselina-O satellites as part of the Tselina ELINT system.

COSMOS 1758 was lifted into orbit during the mission ‘Tsiklon-3 | Tselina-D 56’, on board a Tsiklon-3 space rocket.

The launch took place on June 12, 1986, 4:43 a.m. from 32/1.

For more information about the launch, click the button.

Launch to space Tsiklon-3 | Tselina-D 56
Tsiklon-3 | Tselina-D 56

Agency: N/A

Status: Launch Successful

Launch date: June 12, 1986, 4:43 a.m. UTC

Rocket: Tsiklon-3

Launch pad: 32/1

Location: Plesetsk Cosmodrome, Russian Federation

...

Latest news about this satellite

There are no fresh news available about this satellite. Check back as we update our databases every day.


Newsletter sign-up

Weekly statistics, charts and insights to help you stay on top of the space industry.